Weather History for Faribault, MN

Change the Weather History Date:

Wednesday, May 22, 2013

  Actual Average Record
Temperature  
Mean Temperature 50 °F -  
Max Temperature 53 °F 74 °F 90 °F (1964)
Min Temperature 48 °F 50 °F 30 °F (1963)
Degree Days  
Heating Degree Days 14    
Moisture  
Dew Point 50 °F    
Average Humidity 98    
Maximum Humidity 100    
Minimum Humidity 88    
Precipitation  
Precipitation 0.35 in - - ()
Sea Level Pressure  
Sea Level Pressure 29.76 in    
Wind  
Wind Speed 8 mph (North)    
Max Wind Speed 14 mph    
Max Gust Speed 22 mph    
Visibility 6 miles    
Events Rain    
Averages and records for this station are not official NWS values.
T = Trace of Precipitation, MM = Missing Value Source: NWS Daily Summary

Daily Weather History Graph

Daily Weather History Graph

Search for Another Location

Airport:

Trip Planner

Search our weather history database for the weather conditions in past years. The results will help you decide how hot, cold, wet, or windy it might be!

Date:

Astronomy

May. 22, 2013 Rise Set
Actual Time 5:39 AM CDT 8:41 PM CDT
Civil Twilight 5:04 AM CDT 9:16 PM CDT
Nautical Twilight 4:20 AM CDT 10:00 PM CDT
Astronomical Twilight 3:27 AM CDT 10:53 PM CDT
Moon 5:59 PM CDT (5/22) 3:50 AM CDT (5/22)
Length of Visible Light 16h 11m
Length of Day
15h 02m
Waxing Gibbous, 91% of the Moon is Illuminated
May 22
Waxing Gibbous
May 24
Full
May 31
Last Quarter
Jun 8
New
Jun 16
First Quarter

Hourly Weather History & Observations

Time (CDT) Temp. Dew Point Humidity Pressure Visibility Wind Dir Wind Speed Gust Speed Precip Events Conditions
12:14 AM 53.6 °F 53.6 °F 100% 29.68 in 7.0 mi North 6.9 mph - N/A   Overcast
12:34 AM 53.6 °F 53.6 °F 100% 29.69 in 7.0 mi North 5.8 mph - N/A   Overcast
12:53 AM 53.6 °F 53.6 °F 100% 29.68 in 7.0 mi North 6.9 mph - N/A   Overcast
1:14 AM 53.6 °F 53.6 °F 100% 29.68 in 7.0 mi North 8.1 mph - N/A   Overcast
1:33 AM 53.6 °F 53.6 °F 100% 29.68 in 7.0 mi North 6.9 mph - N/A   Overcast
1:54 AM 53.6 °F 53.6 °F 100% 29.67 in 7.0 mi North 8.1 mph - N/A   Overcast
2:14 AM 51.8 °F 51.8 °F 100% 29.67 in 4.0 mi North 8.1 mph - N/A   Overcast
2:33 AM 51.8 °F 51.8 °F 100% 29.68 in 4.0 mi North 6.9 mph - N/A   Overcast
2:54 AM 51.8 °F 51.8 °F 100% 29.68 in 3.0 mi North 6.9 mph - N/A   Overcast
3:14 AM 51.8 °F 51.8 °F 100% 29.69 in 2.5 mi North 5.8 mph - N/A   Overcast
3:34 AM 51.8 °F 51.8 °F 100% 29.69 in 3.0 mi North 3.5 mph - N/A Rain Rain
3:54 AM 51.8 °F 51.8 °F 100% 29.69 in 3.0 mi North 5.8 mph - 0.05 in Rain Rain
4:14 AM 50.0 °F 50.0 °F 100% 29.70 in 3.0 mi NNE 4.6 mph - 0.02 in Rain Heavy Rain
4:34 AM 50.0 °F 50.0 °F 100% 29.69 in 3.0 mi North 8.1 mph - 0.03 in   Drizzle
4:54 AM 50.0 °F 50.0 °F 100% 29.70 in 4.0 mi North 6.9 mph - 0.03 in   Drizzle
5:14 AM 50.0 °F 50.0 °F 100% 29.69 in 3.0 mi North 6.9 mph - 0.02 in   Drizzle
5:34 AM 48.2 °F 48.2 °F 100% 29.69 in 5.0 mi North 8.1 mph - 0.02 in   Light Drizzle
5:53 AM 48.2 °F 48.2 °F 100% 29.69 in 7.0 mi North 6.9 mph - 0.02 in   Light Drizzle
6:14 AM 48.2 °F 48.2 °F 100% 29.69 in 7.0 mi North 8.1 mph - N/A   Overcast
6:34 AM 48.2 °F 48.2 °F 100% 29.70 in 10.0 mi North 10.4 mph - N/A   Overcast
6:54 AM 48.2 °F 48.2 °F 100% 29.70 in 5.0 mi North 8.1 mph - N/A   Overcast
7:14 AM 48.2 °F 48.2 °F 100% 29.70 in 2.5 mi North 9.2 mph - N/A Rain Light Rain
7:34 AM 48.2 °F 48.2 °F 100% 29.69 in 3.0 mi North 8.1 mph - N/A   Light Drizzle
7:54 AM 48.2 °F 48.2 °F 100% 29.69 in 4.0 mi North 8.1 mph - 0.01 in   Light Drizzle
8:14 AM 48.2 °F 48.2 °F 100% 29.69 in 3.0 mi North 8.1 mph - N/A   Light Drizzle
8:34 AM 48.2 °F 48.2 °F 100% 29.70 in 3.0 mi North 8.1 mph - N/A   Drizzle
8:54 AM 48.2 °F 48.2 °F 100% 29.70 in 7.0 mi North 9.2 mph - N/A   Overcast
9:14 AM 48.2 °F 48.2 °F 100% 29.70 in 7.0 mi North 10.4 mph - N/A   Overcast
9:34 AM 48.2 °F 48.2 °F 100% 29.71 in 7.0 mi North 5.8 mph - N/A   Overcast
9:54 AM 48.2 °F 48.2 °F 100% 29.71 in 7.0 mi North 6.9 mph - 0.01 in   Light Drizzle
10:14 AM 50.0 °F 50.0 °F 100% 29.71 in 4.0 mi North 8.1 mph - N/A Rain Light Rain
10:34 AM 48.2 °F 48.2 °F 100% 29.72 in 4.0 mi North 6.9 mph - 0.02 in   Drizzle
10:54 AM 50.0 °F 50.0 °F 100% 29.72 in 2.5 mi North 8.1 mph - 0.02 in   Drizzle
11:14 AM 50.0 °F 50.0 °F 100% 29.72 in 4.0 mi North 10.4 mph - N/A   Light Drizzle
11:34 AM 50.0 °F 50.0 °F 100% 29.73 in 3.0 mi North 10.4 mph - N/A   Drizzle
11:54 AM 50.0 °F 50.0 °F 100% 29.73 in 2.5 mi North 9.2 mph - 0.03 in   Drizzle
12:14 PM 50.0 °F 50.0 °F 100% 29.74 in 3.0 mi North 6.9 mph - 0.03 in Rain Rain
12:34 PM 50.0 °F 50.0 °F 100% 29.74 in 7.0 mi North 9.2 mph - 0.04 in   Drizzle
12:54 PM 50.0 °F 50.0 °F 100% 29.74 in 4.0 mi North 8.1 mph - 0.05 in Rain Light Rain
1:14 PM 50.0 °F 50.0 °F 100% 29.75 in 4.0 mi North 9.2 mph - 0.02 in Rain Rain
1:34 PM 50.0 °F 50.0 °F 100% 29.75 in 5.0 mi North 8.1 mph - 0.03 in Rain Rain
1:54 PM 50.0 °F 50.0 °F 100% 29.75 in 5.0 mi North 8.1 mph 16.1 mph 0.03 in Rain Light Rain
2:14 PM 51.8 °F 50.0 °F 94% 29.76 in 4.0 mi North 6.9 mph 16.1 mph 0.01 in Rain Rain
2:34 PM 51.8 °F 51.8 °F 100% 29.76 in 7.0 mi North 10.4 mph - 0.03 in Rain Rain
2:54 PM 51.8 °F 51.8 °F 100% 29.77 in 5.0 mi North 9.2 mph - 0.03 in   Drizzle
3:14 PM 51.8 °F 51.8 °F 100% 29.77 in 4.0 mi North 10.4 mph - N/A Rain Rain
3:34 PM 51.8 °F 51.8 °F 100% 29.78 in 5.0 mi North 11.5 mph - 0.01 in Rain Rain
3:54 PM 51.8 °F 51.8 °F 100% 29.78 in 4.0 mi North 9.2 mph 16.1 mph 0.02 in   Drizzle
4:13 PM 51.8 °F 51.8 °F 100% 29.78 in 5.0 mi North 10.4 mph 18.4 mph 0.01 in Rain Light Rain
4:34 PM 51.8 °F 51.8 °F 100% 29.79 in 4.0 mi North 10.4 mph 17.3 mph 0.01 in   Drizzle
4:54 PM 51.8 °F 51.8 °F 100% 29.79 in 7.0 mi North 11.5 mph 17.3 mph 0.02 in   Drizzle
5:14 PM 51.8 °F 51.8 °F 100% 29.80 in 7.0 mi North 10.4 mph 16.1 mph 0.01 in   Light Drizzle
5:34 PM 51.8 °F 51.8 °F 100% 29.80 in 4.0 mi North 13.8 mph 18.4 mph 0.02 in Rain Rain
5:54 PM 51.8 °F 51.8 °F 100% 29.81 in 4.0 mi North 12.7 mph 16.1 mph 0.03 in Rain Light Rain
6:14 PM 51.8 °F 51.8 °F 100% 29.81 in 5.0 mi North 11.5 mph 17.3 mph N/A Rain Light Rain
6:34 PM 51.8 °F 51.8 °F 100% 29.82 in 7.0 mi North 10.4 mph 17.3 mph N/A   Light Drizzle
6:54 PM 51.8 °F 51.8 °F 100% 29.83 in 10.0 mi North 10.4 mph 16.1 mph N/A   Overcast
7:13 PM 51.8 °F 50.0 °F 94% 29.83 in 10.0 mi North 10.4 mph - N/A   Overcast
7:34 PM 51.8 °F 50.0 °F 94% 29.84 in 10.0 mi North 10.4 mph 16.1 mph N/A   Overcast
7:54 PM 51.8 °F 50.0 °F 94% 29.85 in 10.0 mi North 11.5 mph - N/A   Overcast
8:14 PM 51.8 °F 48.2 °F 88% 29.86 in 10.0 mi North 12.7 mph 20.7 mph N/A   Overcast
8:34 PM 51.8 °F 48.2 °F 88% 29.87 in 10.0 mi North 13.8 mph 18.4 mph N/A   Overcast
8:53 PM 50.0 °F 48.2 °F 94% 29.88 in 10.0 mi North 10.4 mph 16.1 mph N/A   Overcast
9:14 PM 50.0 °F 48.2 °F 94% 29.88 in 10.0 mi North 12.7 mph 21.9 mph N/A   Overcast
9:33 PM 50.0 °F 48.2 °F 94% 29.89 in 10.0 mi North 12.7 mph 19.6 mph N/A   Overcast
9:54 PM 50.0 °F 48.2 °F 94% 29.91 in 10.0 mi North 12.7 mph 17.3 mph N/A Rain Light Rain
10:14 PM 50.0 °F 48.2 °F 94% 29.92 in 10.0 mi North 13.8 mph - N/A   Overcast
10:34 PM 50.0 °F 48.2 °F 94% 29.93 in 10.0 mi North 11.5 mph 18.4 mph N/A Rain Light Rain
10:54 PM 50.0 °F 48.2 °F 94% 29.93 in 10.0 mi North 9.2 mph - N/A   Overcast
11:14 PM 50.0 °F 48.2 °F 94% 29.95 in 10.0 mi North 12.7 mph 17.3 mph N/A   Overcast
11:34 PM 50.0 °F 48.2 °F 94% 29.96 in 10.0 mi North 10.4 mph - N/A   Overcast
11:54 PM 50.0 °F 48.2 °F 94% 29.96 in 10.0 mi North 9.2 mph - N/A   Overcast